Index of /dev/galabauschneider.de/images

[ICO]NameLast modifiedSizeDescription

[DIR]Parent Directory  -  
[IMG]IMG_0065.jpg18-Apr-2012 20:01 171K 
[IMG]P1090194_2.jpg18-Apr-2012 20:01 199K 
[IMG]P1090604.jpg18-Apr-2012 20:01 171K 
[IMG]bg01.jpg18-Apr-2012 19:57 554  
[IMG]bg02.jpg18-Apr-2012 19:57 142K 
[IMG]bg03.jpg18-Apr-2012 19:57 9.0K 
[IMG]bg1_01.jpg18-Apr-2012 19:57 2.9K 
[IMG]bg1_02.jpg18-Apr-2012 19:57 9.5K 
[IMG]bg2_01.png18-Apr-2012 19:57 227  
[IMG]bg2_02.png18-Apr-2012 19:57 227  
[IMG]classic-loader.gif18-Apr-2012 19:57 1.8K 
[IMG]classic-map.png18-Apr-2012 19:57 1.8K 
[DIR]floristik/18-Apr-2012 19:57 -  
[DIR]galabau/18-Apr-2012 20:01 -  
[IMG]header1.jpg18-Apr-2012 20:01 141K 
[IMG]header1tn.jpg18-Apr-2012 20:01 19K 
[IMG]header2.jpg18-Apr-2012 20:01 109K 
[IMG]header2tn.jpg18-Apr-2012 20:01 18K 
[IMG]header3.jpg18-Apr-2012 20:01 153K 
[IMG]header3tn.jpg18-Apr-2012 20:01 19K 
[IMG]header4.jpg18-Apr-2012 20:01 168K 
[IMG]header4tn.jpg18-Apr-2012 20:01 23K 
[IMG]homepage01.jpg18-Apr-2012 20:01 2.0K 
[IMG]homepage02.jpg18-Apr-2012 20:01 5.5K 
[IMG]homepage04.jpg18-Apr-2012 20:01 1.6K 
[IMG]homepage10.jpg18-Apr-2012 20:01 52K 
[IMG]homepage11.jpg18-Apr-2012 20:01 38K 
[IMG]homepage12.jpg18-Apr-2012 20:01 2.0K 
[IMG]homepage13.jpg18-Apr-2012 20:01 2.7K 
[IMG]homepage14.jpg18-Apr-2012 20:01 1.6K 
[IMG]homepage15.jpg18-Apr-2012 20:01 2.0K 
[IMG]homepage16.jpg18-Apr-2012 20:01 2.0K 
[IMG]homepage19.jpg18-Apr-2012 20:01 9.2K 
[IMG]hr.png18-Apr-2012 20:01 128  
[IMG]image0033.jpg18-Apr-2012 20:01 129K 
[DIR]laden/18-Apr-2012 20:01 -  
[IMG]logo.png18-Apr-2012 20:01 45K 
[IMG]logo_fleurop_anzeige_.png18-Apr-2012 20:04 15K 
[IMG]redSun_logo.jpg18-Apr-2012 20:01 5.4K 
[IMG]spacer.gif18-Apr-2012 20:01 43  
[IMG]subpage1_01.jpg18-Apr-2012 20:01 2.1K 
[IMG]subpage1_02.jpg18-Apr-2012 20:01 2.1K 
[IMG]subpage2_01.jpg18-Apr-2012 20:01 3.9K